Location: Atbuku
(36.4936°N, 30.4362°E)
Time: 09:23:19
(UTC+00:00)

IRS-P3 - Pass Details

Date: 14 March 2026
Orbit: 810 x 816 km, 99.0° (Epoch: 20 April)

Event Time Altitude Azimuth Distance (km) Brightness Sun altitude
Rises 17:09:14 0° 195° (SSW) 3,326 7.4 -13.8°
Reaches altitude 10° 17:11:55 10° 207° (SSW) 2,399 6.8 -14.3°
Maximum altitude 17:16:19 26° 264° (W) 1,545 6.4 -15.2°
Drops below altitude 10° 17:20:45 10° 320° (NW) 2,411 7.3 -16.1°
Sets 17:23:29 0° 333° (NNW) 3,347 7.9 -16.6°
